This demonstration page uses our WeatherBlox Daily Observations layout. Learn more.

Left ArrowRight Arrow

Hourly Observations for September 8, 2020

Temp ( °F °C ) Dew Point ( °F °C ) Humidity (%) Winds ( mph kmh ) Pressure ( in mb ) Visibility ( mi km ) Precip ( " mm )
12:49 am 00:49 Cloudy with Nearby Thunderstorms 52 11 46 8 82 82 NE 22 35 30.03 1017 8 12.87472 0.001 0.001
12:54 am 00:54 Cloudy with Nearby Thunderstorms 51 10.6 46 7.8 83 83 NNE 18 30 30.01 1016 6 9.65604 0.04 1.016
1:04 am 01:04 Cloudy with Rain 51 10.6 47 8.3 86 86 NE 15 24 30.02 1017 6 9.65604 0.05 1.27
1:54 am 01:54 Cloudy with Light Rain 52 11.1 45 7.2 77 77 NE 17 28 30 1016 10 16.0934 0.1 2.54
2:54 am 02:54 Cloudy 51 10.6 44 6.7 77 77 NNE 17 28 30.01 1016 10 16.0934 0.001 0.001
3:54 am 03:54 Cloudy with Light Rain 51 10.6 44 6.7 77 77 NNE 17 28 30.07 1018 10 16.0934 0.001 0.001
4:54 am 04:54 Cloudy 50 10 43 6.1 77 77 NNE 20 31 30.05 1018 10 16.0934 0.001 0.001
5:54 am 05:54 Cloudy 50 10 43 6.1 77 77 N 18 30 30.09 1019 10 16.0934 0 0
6:54 am 06:54 Cloudy 50 10 42 5.6 74 74 NNE 21 33 30.1 1019 10 16.0934 0.001 0.001
7:30 am 07:30 Cloudy 49 9.4 42 5.6 77 77 NNE 23 37 30.14 1021 10 16.0934 0 0
7:54 am 07:54 Cloudy with Light Rain 48 8.9 43 6.1 83 83 NNE 20 31 30.13 1020 9 14.48406 0.001 0.001
8:49 am 08:49 Cloudy 48 9 43 6 82 82 NNE 23 37 30.15 1021 9 14.48406 0.001 0.001
8:54 am 08:54 Cloudy 49 9.4 43 6.1 80 80 NNE 21 33 30.12 1020 9 14.48406 0.001 0.001
9:40 am 09:40 Cloudy with Rain 49 9.4 44 6.7 83 83 NNE 23 37 30.19 1022 3 4.82802 0.02 0.508
9:54 am 09:54 Cloudy with Light Rain 49 9.4 44 6.7 83 83 NNE 23 37 30.16 1021 3 4.82802 0.03 0.762
10:00 am 10:00 Windy with Storms Likely 49 9.4 44 6.7 83 83 N 22 35 30.19 1022 6 9.65604 0.01 0.254
10:15 am 10:15 Cloudy with Light Rain 48 8.9 44 6.7 86 86 NNE 24 39 30.19 1022 7 11.26538 0.01 0.254
10:22 am 10:22 Cloudy with Light Rain 49 9.4 44 6.7 83 83 NNE 23 37 30.17 1022 8 12.87472 0.01 0.254
10:30 am 10:30 Cloudy with Nearby Thunderstorms 48 8.9 44 6.7 86 86 NNE 24 39 30.19 1022 8 12.87472 0.01 0.254
10:40 am 10:40 Cloudy with Nearby Thunderstorms 48 8.9 44 6.7 86 86 NNE 23 37 30.19 1022 9 14.48406 0.01 0.254
10:54 am 10:54 Cloudy with Nearby Thunderstorms 48 8.9 44 6.7 86 86 NNE 20 31 30.19 1022 10 16.0934 0.01 0.254
10:59 am 10:59 Cloudy with Light Rain 49 9.4 44 6.7 83 83 NNE 25 41 30.18 1022 10 16.0934 0.001 0.001
11:12 am 11:12 Windy with Storms Likely 48 8.9 44 6.7 86 86 NNE 25 41 30.22 1023 9 14.48406 0.001 0.001
11:54 am 11:54 Cloudy with Thunderstorms 46 7.8 43 6.1 89 89 N 18 30 30.21 1023 5 8.0467 0.15 3.81
12:07 pm 12:07 Cloudy with Nearby Thunderstorms 46 7.8 42 5.6 86 86 N 25 41 30.23 1024 6 9.65604 0.01 0.254
12:22 pm 12:22 Windy with Storms Likely 46 7.8 42 5.6 86 86 NNE 22 35 30.21 1023 8 12.87472 0.02 0.508
12:37 pm 12:37 Cloudy with Nearby Thunderstorms 46 7.8 42 5.6 86 86 N 24 39 30.22 1023 9 14.48406 0.02 0.508
12:54 pm 12:54 Windy with Storms Likely 46 7.8 42 5.6 86 86 NNE 26 43 30.21 1023 10 16.0934 0.02 0.508
1:00 pm 13:00 Windy with Storms Likely 46 7.8 41 5 83 83 N 23 37 30.24 1024 3 4.82802 0.001 0.001
1:16 pm 13:16 Cloudy with Nearby Thunderstorms 45 7.2 41 5 86 86 N 26 43 30.22 1024 3 4.82802 0.06 1.524
1:37 pm 13:37 Cloudy with Light Rain 45 7.2 41 5 86 86 NNE 23 37 30.22 1024 3 4.82802 0.06 1.524
1:49 pm 13:49 Cloudy with Nearby Thunderstorms 45 7 41 5 87 87 N 23 37 30.26 1025 3 4.82802 0.08 2.032
1:54 pm 13:54 Cloudy with Nearby Thunderstorms 45 7.2 41 5 86 86 NNE 24 39 30.22 1023 3 4.82802 0.09 2.286
2:54 pm 14:54 Cloudy with Light Rain 46 7.8 41 5 83 83 NE 23 37 30.23 1024 9 14.48406 0.03 0.762
3:32 pm 15:32 Cloudy with Heavy Thunderstorms 45 7.2 42 5.6 90 90 N 21 33 30.26 1025 3 4.82802 0.05 1.27
3:46 pm 15:46 Cloudy with Light Rain 46 7.8 42 5.6 86 86 NE 22 35 30.22 1023 7 11.26538 0.09 2.286
3:54 pm 15:54 Cloudy with Light Rain 46 7.8 42 5.6 86 86 N 18 30 30.25 1024 8 12.87472 0.09 2.286
4:54 pm 16:54 Cloudy with Light Rain 46 7.8 42 5.6 86 86 NNE 21 33 30.24 1024 7 11.26538 0.01 0.254
5:05 pm 17:05 Cloudy with Light Rain 46 7.8 42 5.6 86 86 NNE 20 31 30.26 1025 6 9.65604 0.001 0.001
5:14 pm 17:14 Cloudy with Light Rain 46 7.8 42 5.6 86 86 N 20 31 30.28 1025 6 9.65604 0.001 0.001
5:27 pm 17:27 Cloudy with Light Rain 46 7.8 42 5.6 86 86 N 20 31 30.28 1025 8 12.87472 0.001 0.001
5:39 pm 17:39 Cloudy with Light Rain 46 7.8 43 6.1 89 89 N 21 33 30.26 1025 9 14.48406 0.01 0.254
5:54 pm 17:54 Cloudy with Light Rain 46 7.8 42 5.6 86 86 NNE 21 33 30.24 1024 9 14.48406 0.01 0.254
6:54 pm 18:54 Cloudy with Light Rain 46 7.8 42 5.6 86 86 N 23 37 30.27 1025 8 12.87472 0.001 0.001
7:13 pm 19:13 Cloudy with Light Rain 46 7.8 41 5 83 83 N 24 39 30.28 1025 9 14.48406 0.001 0.001
7:46 pm 19:46 Cloudy with Light Rain 46 7.8 42 5.6 86 86 N 23 37 30.29 1026 7 11.26538 0.001 0.001
7:54 pm 19:54 Cloudy with Rain 45 7.2 42 5.6 90 90 N 23 37 30.28 1025 7 11.26538 0.001 0.001
8:54 pm 20:54 Cloudy with Light Rain 45 7.2 41 5 86 86 NNE 17 28 30.31 1026 8 12.87472 0.01 0.254
9:54 pm 21:54 Cloudy 44 6.7 40 4.4 85 85 NNE 21 33 30.31 1026 10 16.0934 0.001 0.001
10:02 pm 22:02 Cloudy 44 6.7 39 3.9 83 83 NNE 22 35 30.33 1027 10 16.0934 0 0
10:54 pm 22:54 Cloudy 44 6.7 40 4.4 85 85 NNE 17 28 30.32 1027 10 16.0934 0 0
11:54 pm 23:54 Cloudy with Light Rain 44 6.7 40 4.4 85 85 NNE 14 22 30.34 1027 10 16.0934 0.001 0.001

Powered by AerisWeather